Regional Weather Roundup
Issued by NWS

Home | Current Version | Previous Version | Graphics & Text | Print | Product List | Glossary On
Versions: 1 2 3 4 5 6 7 8 9 10 11 12 13 14 15 16 17 18 19 20 21 22 23 24 25 26 27 28 29 30 31 32 33 34 35 36 37 38 39 40 41 42 43 44 45 46 47 48 49 50
000
ASUS43 KLOT 100103
RWRIL

ILLINOIS REGIONAL WEATHER ROUNDUP
NATIONAL WEATHER SERVICE CHICAGO/ROMEOVILLE IL
700 PM CST TUE FEB 09 2016

NOTE: "FAIR" INDICATES FEW OR NO CLOUDS BELOW 12,000 FEET WITH NO
SIGNIFICANT WEATHER AND/OR OBSTRUCTIONS TO VISIBILITY.

* THESE STATIONS ARE NOT UNDER NWS QUALITY CONTROL. THEY ALSO MAY NOT
  REPORT WEATHER SUCH AS PRECIPITATION OR FOG.

ILZ001-002-007-009-015-016-024-100200-
NORTHWEST ILLINOIS

CITY           SKY/WX    TMP DP  RH WIND       PRES   REMARKS
MOLINE         CLEAR     14   3  61 NW10      30.07R WCI   1
STERLING*      CLOUDY    16   5  62 NW9       29.99R WCI   4
$$

ILZ003-004-008-010-011-017-018-100200-
NORTH CENTRAL ILLINOIS

CITY           SKY/WX    TMP DP  RH WIND       PRES   REMARKS
ROCKFORD       FLURRIES  15   6  67 NW10      30.00R WCI   2
FREEPORT*      CLOUDY    13   3  64 NW12G17   30.01R WCI   0
ROCHELLE*      CLOUDY    15   6  69 NW13G22   29.99R WCI   0
DE KALB*       FLURRIES  13   9  82 NW14      29.96S WCI  -2
$$

ILZ005-006-012>014-019>023-100200-
NORTHEAST ILLINOIS

CITY           SKY/WX    TMP DP  RH WIND       PRES   REMARKS
CHICAGO-OHARE  LGT SNOW  15   8  73 NW14      29.93R WCI   0
CHICAGO-MIDWAY FLURRIES  18   6  59 NW13      29.94R WCI   5
AURORA         LGT SNOW  15   9  76 NW12      29.97R WCI   2
WAUKEGAN       LGT SNOW  15   9  76 W8        29.92R WCI   4
DUPAGE AIRPORT LGT SNOW  14   7  73 NW10      29.94R WCI   1
WHEELING       CLOUDY    16   8  71 NW9       29.95R WCI   4
NORTHERLY ISL    N/A     18   9  68 NW13        N/A  WCI   5
$$

LMZ740>746-100200-
SOUTHERN LAKE MICHIGAN

STATION/POSITION SKY/WX   TEMP    WIND        PRES    VSBY  WAVE
                          AIR SEA DIR/SP/G                  HT/PER
                          (F)     (DEG/KT/KT) (MB)    (MI)  (FT/S)
HARRISON CRIB              18     300/ 16/ 18   N/A
BURNHAM HARBOR             18     300/  7/ 17   N/A
CALUMET HARBOR             17                 1012.9R
BURNS HARBOR               20     310/ 15/ 21 1013.5R
MICHIGAN CITY              19     270/ 23/ 26   N/A
$$

ILZ025>027-034>036-040-047-049-050-058-095>099-100200-
WEST-CENTRAL ILLINOIS

CITY           SKY/WX    TMP DP  RH WIND       PRES   REMARKS
QUINCY         CLEAR     16   4  59 NW13      30.10R WCI   2
GALESBURG*     CLEAR     13   6  73 NW13G21   30.05R WCI  -2
MACOMB*        CLEAR     15   7  71 NW21      30.10R WCI  -3
$$

ILZ028>032-037-038-041>044-048-051>054-059>061-100200-
CENTRAL ILLINOIS

CITY           SKY/WX    TMP DP  RH WIND       PRES   REMARKS
BLOOMINGTON    FLURRIES  16   9  74 NW20      30.01R WCI  -1
DECATUR        LGT SNOW  17  11  77 NW15      30.03R WCI   2
PEORIA         LGT SNOW  15   7  70 NW10G20   30.05R WCI   2
LINCOLN*       LGT SNOW  18  12  78 NW8       30.04S WCI   8
SPRINGFIELD    CLOUDY    19   9  65 NW13      30.06R WCI   6
TAYLORVILLE    NOT AVBL
$$

ILZ033-039-045-046-055>057-062-063-100200-
EAST-CENTRAL ILLINOIS

CITY           SKY/WX    TMP DP  RH WIND       PRES   REMARKS
CHAMPAIGN      FLURRIES  17  11  77 NW14      29.99R WCI   3
MATTOON        CLOUDY    17  10  74 NW21      30.01R WCI   0
$$

ILZ079-100>102-100200-
SOUTHWEST ILLINOIS

CITY           SKY/WX    TMP DP  RH WIND       PRES   REMARKS
ALTON          PTCLDY    18   9  68 W8        30.09R WCI   7
BELLEVILLE     CLEAR     16   8  72 NW6       30.08R WCI   7
CAHOKIA*       MOCLDY    25   9  50 NW16G24   30.10R WCI  12
SPARTA*        CLEAR     20  13  73 CALM      30.09S
$$

ILZ064>066-069>071-074>076-080>082-084>086-088>090-092>094-100200-
SOUTH-CENTRAL ILLINOIS

CITY           SKY/WX    TMP DP  RH WIND       PRES   REMARKS
CARBONDALE     CLOUDY    20  12  71 W3        30.10R
MARION         FLURRIES  21  16  79 CALM      30.10R
MT. VERNON     CLOUDY    19  10  68 NW6       30.08R WCI  11
CENTRALIA*     MOCLDY    20  14  76 NW7       30.07R WCI  11
SALEM*         CLOUDY    21  11  64 NW13      30.07R WCI   9
$$

ILZ067-068-072-073-078-083-087-091-100200-
SOUTHEAST ILLINOIS

CITY           SKY/WX    TMP DP  RH WIND       PRES   REMARKS
LAWRENCEVILLE  CLOUDY    20  12  71 NW15      30.05R WCI   6
HARRISBURG*    FLURRIES  22  17  81 NW8       30.09S WCI  12
$$

ABBREVIATIONS USED IN REMARKS
   TC - TEMPERATURE IN CELSIUS
  WCI - WIND CHILL INDEX
   HX - HEAT INDEX
  VSB - VISIBILITY
$$




USA.gov is the U.S. government's official web portal to all federal, state and local government web resources and services.